• In Portugal
  • List of Countries
  • For 7 days
  • Water Temperature
  • Satellite Maps
  • Weather Map
  • Weather Widgets
  • user-avatar
    Login

    Hourly Weather Sagaleipie

    Today, 18 December, Monday

    Time Temperature Precipitation Wind Pressure Humidity
    00:00 +21°C° 0 mm 0 mps 723 mmHg 53%
    01:00 +20°C° 0 mm 0 mps 723 mmHg 57%
    02:00 +20°C° 0 mm 0 mps 723 mmHg 62%
    03:00 +19°C° 0 mm 0 mps 723 mmHg 66%
    04:00 +19°C° 0 mm 0 mps 723 mmHg 69%
    05:00 +19°C° 0 mm 0 mps 723 mmHg 73%
    06:00 +21°C° 0 mm 0 mps 723 mmHg 70%
    07:00 +23°C° 0 mm 0 mps 723 mmHg 68%
    08:00 +26°C° 0 mm 1 mps 724 mmHg 65%
    09:00 +29°C° 0 mm 1 mps 724 mmHg 55%
    10:00 +32°C° 0 mm 1 mps 724 mmHg 45%
    11:00 +35°C° 0 mm 1 mps 724 mmHg 35%
    12:00 +35°C° 0 mm 1 mps 723 mmHg 31%
    13:00 +34°C° 0 mm 0 mps 722 mmHg 28%
    14:00 +35°C° 0 mm 0 mps 721 mmHg 24%
    15:00 +33°C° 0 mm 0 mps 721 mmHg 30%
    16:00 +32°C° 0 mm 1 mps 721 mmHg 36%
    17:00 +30°C° 0 mm 1 mps 720 mmHg 42%
    18:00 +29°C° 0 mm 1 mps 721 mmHg 47%
    19:00 +27°C° 0 mm 1 mps 721 mmHg 53%
    20:00 +26°C° 0 mm 1 mps 722 mmHg 59%
    21:00 +25°C° 0 mm 1 mps 722 mmHg 67%
    22:00 +24°C° 0 mm 1 mps 722 mmHg 75%
    23:00 +24°C° 0 mm 1 mps 723 mmHg 82%

    Tomorrow, 19 December, Tuesday

    Time Temperature Precipitation Wind Pressure Humidity
    00:00 +24°C° 0 mm 1 mps 722 mmHg 86%
    01:00 +24°C° 0 mm 1 mps 722 mmHg 90%
    02:00 +24°C° 0 mm 1 mps 722 mmHg 93%
    03:00 +24°C° 0 mm 1 mps 722 mmHg 93%
    04:00 +24°C° 0 mm 1 mps 722 mmHg 92%
    05:00 +24°C° 0 mm 1 mps 722 mmHg 92%
    06:00 +25°C° 0.1 mm 1 mps 723 mmHg 89%
    07:00 +25°C° 0.1 mm 1 mps 723 mmHg 86%
    08:00 +26°C° 0.1 mm 1 mps 724 mmHg 82%
    09:00 +28°C° 0 mm 1 mps 724 mmHg 73%
    10:00 +30°C° 0 mm 1 mps 724 mmHg 63%
    11:00 +32°C° 0 mm 1 mps 723 mmHg 53%
    12:00 +33°C° 0 mm 1 mps 723 mmHg 47%
    13:00 +34°C° 0 mm 1 mps 722 mmHg 41%
    14:00 +34°C° 0 mm 0 mps 721 mmHg 34%
    15:00 +32°C° 0 mm 0 mps 721 mmHg 39%
    16:00 +30°C° 0 mm 0 mps 721 mmHg 44%
    17:00 +28°C° 0 mm 0 mps 721 mmHg 49%
    18:00 +27°C° 0 mm 0 mps 721 mmHg 55%
    19:00 +27°C° 0 mm 1 mps 722 mmHg 62%
    20:00 +26°C° 0 mm 1 mps 722 mmHg 68%
    21:00 +25°C° 0 mm 1 mps 722 mmHg 76%
    22:00 +24°C° 0 mm 1 mps 722 mmHg 84%
    23:00 +24°C° 0 mm 1 mps 722 mmHg 91%

    Day after tomorrow, 20 December, Wednesday

    Time Temperature Precipitation Wind Pressure Humidity
    00:00 +23°C° 0 mm 1 mps 722 mmHg 93%
    01:00 +23°C° 0 mm 1 mps 722 mmHg 94%
    02:00 +23°C° 0 mm 1 mps 721 mmHg 96%
    03:00 +24°C° 0.1 mm 1 mps 721 mmHg 95%
    04:00 +24°C° 0.1 mm 1 mps 721 mmHg 93%
    05:00 +24°C° 0.1 mm 1 mps 722 mmHg 92%
    06:00 +25°C° 0.1 mm 1 mps 722 mmHg 89%
    07:00 +25°C° 0.1 mm 1 mps 723 mmHg 87%
    08:00 +25°C° 0.1 mm 1 mps 723 mmHg 84%
    09:00 +27°C° 0 mm 1 mps 723 mmHg 76%
    10:00 +29°C° 0 mm 1 mps 723 mmHg 67%
    11:00 +30°C° 0 mm 1 mps 723 mmHg 58%
    12:00 +32°C° 0 mm 1 mps 722 mmHg 54%
    13:00 +33°C° 0 mm 1 mps 722 mmHg 49%
    14:00 +34°C° 0 mm 1 mps 721 mmHg 44%
    15:00 +32°C° 0 mm 1 mps 721 mmHg 49%
    16:00 +31°C° 0 mm 1 mps 721 mmHg 53%
    17:00 +29°C° 0 mm 1 mps 721 mmHg 58%
    18:00 +28°C° 0 mm 1 mps 721 mmHg 63%
    19:00 +27°C° 0 mm 1 mps 722 mmHg 68%
    20:00 +25°C° 0 mm 1 mps 722 mmHg 74%
    21:00 +25°C° 0 mm 1 mps 722 mmHg 77%
    22:00 +24°C° 0 mm 1 mps 722 mmHg 81%
    23:00 +22°C° 0 mm 0 mps 722 mmHg 85%

    21 December, Thursday

    Time Temperature Precipitation Wind Pressure Humidity
    00:00 +21°C° 0 mm 0 mps 722 mmHg 88%
    01:00 +21°C° 0 mm 0 mps 722 mmHg 91%
    02:00 +21°C° 0 mm 0 mps 721 mmHg 95%
    03:00 +21°C° 0.1 mm 0 mps 722 mmHg 95%
    04:00 +21°C° 0.1 mm 0 mps 722 mmHg 95%
    05:00 +22°C° 0.1 mm 0 mps 722 mmHg 95%
    06:00 +23°C° 0 mm 0 mps 723 mmHg 90%
    07:00 +26°C° 0 mm 1 mps 723 mmHg 85%
    08:00 +27°C° 0 mm 1 mps 724 mmHg 80%
    09:00 +29°C° 0 mm 1 mps 724 mmHg 69%
    10:00 +31°C° 0 mm 1 mps 723 mmHg 59%
    11:00 +33°C° 0 mm 1 mps 723 mmHg 49%
    12:00 +33°C° 0 mm 1 mps 722 mmHg 45%
    13:00 +34°C° 0 mm 1 mps 722 mmHg 41%
    14:00 +33°C° 0 mm 0 mps 721 mmHg 38%
    15:00 +31°C° 0 mm 0 mps 721 mmHg 43%
    16:00 +32°C° 0 mm 1 mps 721 mmHg 48%
    17:00 +30°C° 0 mm 1 mps 721 mmHg 53%
    18:00 +29°C° 0.1 mm 1 mps 722 mmHg 60%
    19:00 +27°C° 0.1 mm 1 mps 723 mmHg 66%
    20:00 +26°C° 0.1 mm 1 mps 723 mmHg 72%
    21:00 +25°C° 0.6 mm 1 mps 723 mmHg 79%
    22:00 +22°C° 0.6 mm 0 mps 723 mmHg 86%
    23:00 +21°C° 0.6 mm 0 mps 723 mmHg 93%

    22 December, Friday

    Time Temperature Precipitation Wind Pressure Humidity
    00:00 +21°C° 0.2 mm 0 mps 723 mmHg 94%
    01:00 +21°C° 0.2 mm 0 mps 723 mmHg 95%
    02:00 +21°C° 0.2 mm 0 mps 722 mmHg 95%
    03:00 +20°C° 0 mm 0 mps 723 mmHg 94%
    04:00 +20°C° 0 mm 0 mps 723 mmHg 93%
    05:00 +20°C° 0 mm 0 mps 723 mmHg 92%
    06:00 +23°C° 0 mm 1 mps 723 mmHg 82%
    07:00 +24°C° 0 mm 1 mps 724 mmHg 72%
    08:00 +25°C° 0 mm 1 mps 724 mmHg 62%
    09:00 +28°C° 0 mm 1 mps 724 mmHg 51%
    10:00 +30°C° 0 mm 2 mps 724 mmHg 40%
    11:00 +32°C° 0 mm 2 mps 724 mmHg 29%
    12:00 +34°C° 0 mm 2 mps 723 mmHg 27%
    13:00 +35°C° 0 mm 2 mps 722 mmHg 24%
    14:00 +36°C° 0 mm 2 mps 721 mmHg 22%
    15:00 +33°C° 0 mm 1 mps 721 mmHg 26%
    16:00 +31°C° 0 mm 1 mps 721 mmHg 31%
    17:00 +29°C° 0 mm 1 mps 721 mmHg 35%
    18:00 +27°C° 0 mm 1 mps 722 mmHg 37%
    19:00 +26°C° 0 mm 1 mps 723 mmHg 38%
    20:00 +24°C° 0 mm 1 mps 723 mmHg 40%
    21:00 +23°C° 0 mm 1 mps 723 mmHg 42%
    22:00 +23°C° 0 mm 1 mps 723 mmHg 45%
    23:00 +22°C° 0 mm 1 mps 723 mmHg 48%

    23 December, Saturday

    Time Temperature Precipitation Wind Pressure Humidity
    00:00 +22°C° 0 mm 1 mps 723 mmHg 48%
    01:00 +21°C° 0 mm 1 mps 722 mmHg 48%
    02:00 +21°C° 0 mm 1 mps 722 mmHg 48%
    03:00 +20°C° 0 mm 1 mps 722 mmHg 47%
    04:00 +19°C° 0 mm 1 mps 722 mmHg 45%
    05:00 +19°C° 0 mm 1 mps 723 mmHg 43%
    06:00 +20°C° 0 mm 1 mps 723 mmHg 38%
    07:00 +22°C° 0 mm 1 mps 724 mmHg 34%
    08:00 +24°C° 0 mm 2 mps 724 mmHg 29%
    09:00 +26°C° 0 mm 2 mps 724 mmHg 26%
    10:00 +29°C° 0 mm 2 mps 724 mmHg 23%
    11:00 +31°C° 0 mm 2 mps 723 mmHg 19%
    12:00 +32°C° 0 mm 1 mps 723 mmHg 18%
    13:00 +33°C° 0 mm 1 mps 722 mmHg 18%
    14:00 +34°C° 0 mm 1 mps 721 mmHg 17%
    15:00 +32°C° 0 mm 1 mps 721 mmHg 22%
    16:00 +30°C° 0 mm 1 mps 721 mmHg 27%
    17:00 +26°C° 0 mm 0 mps 721 mmHg 32%
    18:00 +24°C° 0 mm 0 mps 722 mmHg 34%
    19:00 +23°C° 0 mm 0 mps 722 mmHg 35%
    20:00 +21°C° 0 mm 0 mps 722 mmHg 37%
    21:00 +21°C° 0 mm 0 mps 722 mmHg 38%
    22:00 +20°C° 0 mm 0 mps 722 mmHg 39%
    23:00 +19°C° 0 mm 0 mps 722 mmHg 40%
    Show more